Time,TemperatureF,DewpointF,PressureIn,WindDirection,WindDirectionDegrees,WindSpeedMPH,WindSpeedGustMPH,Humidity,HourlyPrecipIn,Conditions,Clouds,dailyrainin,SoftwareType,DateUTC
2013-11-20 00:02:00,37.4,23.0,30.27,NNW,344,13.8,-999.9,56,-99.99,,,-99.99,,2013-11-20 05:02:00,
2013-11-20 00:08:00,37.4,23.0,30.27,NNW,344,13.8,-999.9,56,-99.99,,,-99.99,,2013-11-20 05:08:00,
2013-11-20 00:14:00,37.4,23.0,30.27,NNW,343,16.1,-999.9,56,-99.99,,,-99.99,,2013-11-20 05:14:00,
2013-11-20 00:20:00,37.4,23.0,30.27,NNW,343,16.1,-999.9,56,-99.99,,,-99.99,,2013-11-20 05:20:00,
2013-11-20 00:26:00,37.4,23.0,30.28,North,357,12.7,-999.9,56,-99.99,,,-99.99,,2013-11-20 05:26:00,
2013-11-20 00:32:00,35.6,21.2,30.28,North,2,12.7,-999.9,56,-99.99,,,-99.99,,2013-11-20 05:32:00,
2013-11-20 00:38:00,35.6,21.2,30.28,North,2,12.7,-999.9,56,-99.99,,,-99.99,,2013-11-20 05:38:00,
2013-11-20 00:44:00,35.6,21.2,30.28,North,357,8.1,-999.9,56,-99.99,,,-99.99,,2013-11-20 05:44:00,
2013-11-20 00:50:00,35.6,21.2,30.28,North,357,8.1,-999.9,56,-99.99,,,-99.99,,2013-11-20 05:50:00,
2013-11-20 00:56:00,35.6,21.2,30.29,North,359,11.5,-999.9,56,-99.99,,,-99.99,,2013-11-20 05:56:00,
2013-11-20 01:02:00,35.6,21.2,30.29,North,8,10.4,-999.9,56,-99.99,,,-99.99,,2013-11-20 06:02:00,
2013-11-20 01:08:00,35.6,21.2,30.29,North,8,10.4,-999.9,56,-99.99,,,-99.99,,2013-11-20 06:08:00,
2013-11-20 02:02:00,35.6,21.2,30.31,NNE,22,10.4,-999.9,56,-99.99,,,-99.99,,2013-11-20 07:02:00,
2013-11-20 02:08:00,35.6,21.2,30.31,NNE,22,10.4,-999.9,56,-99.99,,,-99.99,,2013-11-20 07:08:00,
2013-11-20 02:14:00,35.6,21.2,30.31,NNE,22,10.4,-999.9,56,-99.99,,,-99.99,,2013-11-20 07:14:00,
2013-11-20 02:20:00,35.6,21.2,30.31,NNE,22,10.4,-999.9,56,-99.99,,,-99.99,,2013-11-20 07:20:00,
2013-11-20 02:26:00,35.6,21.2,30.31,NNE,22,10.4,-999.9,56,-99.99,,,-99.99,,2013-11-20 07:26:00,
2013-11-20 02:32:00,33.8,21.2,30.32,NE,36,2.3,-999.9,60,-99.99,,,-99.99,,2013-11-20 07:32:00,
2013-11-20 02:38:00,33.8,21.2,30.32,NE,36,2.3,-999.9,60,-99.99,,,-99.99,,2013-11-20 07:38:00,
2013-11-20 02:44:00,33.8,21.2,30.32,NNE,32,6.9,-999.9,60,-99.99,,,-99.99,,2013-11-20 07:44:00,
2013-11-20 02:50:00,33.8,21.2,30.32,NNE,32,6.9,-999.9,60,-99.99,,,-99.99,,2013-11-20 07:50:00,
2013-11-20 02:56:00,33.8,21.2,30.32,NNE,14,8.1,-999.9,60,-99.99,,,-99.99,,2013-11-20 07:56:00,
2013-11-20 03:02:00,33.8,21.2,30.33,NNE,32,9.2,-999.9,60,-99.99,,,-99.99,,2013-11-20 08:02:00,
2013-11-20 03:08:00,33.8,21.2,30.33,NNE,32,9.2,-999.9,60,-99.99,,,-99.99,,2013-11-20 08:08:00,
2013-11-20 03:14:00,33.8,19.4,30.33,NNE,17,11.5,-999.9,56,-99.99,,,-99.99,,2013-11-20 08:14:00,
2013-11-20 03:20:00,33.8,19.4,30.33,NNE,17,11.5,-999.9,56,-99.99,,,-99.99,,2013-11-20 08:20:00,
2013-11-20 03:26:00,33.8,19.4,30.33,NNE,32,13.8,-999.9,56,-99.99,,,-99.99,,2013-11-20 08:26:00,
2013-11-20 03:32:00,33.8,19.4,30.34,NNE,12,9.2,-999.9,56,-99.99,,,-99.99,,2013-11-20 08:32:00,
2013-11-20 03:38:00,33.8,19.4,30.34,NNE,12,9.2,-999.9,56,-99.99,,,-99.99,,2013-11-20 08:38:00,
2013-11-20 03:44:00,33.8,19.4,30.34,NNE,16,11.5,-999.9,56,-99.99,,,-99.99,,2013-11-20 08:44:00,
2013-11-20 03:50:00,33.8,19.4,30.34,NNE,16,11.5,-999.9,56,-99.99,,,-99.99,,2013-11-20 08:50:00,
2013-11-20 03:56:00,33.8,19.4,30.35,NNE,30,11.5,-999.9,56,-99.99,,,-99.99,,2013-11-20 08:56:00,
2013-11-20 04:02:00,33.8,19.4,30.35,NNE,30,11.5,-999.9,56,-99.99,,,-99.99,,2013-11-20 09:02:00,
2013-11-20 04:08:00,33.8,19.4,30.35,NNE,30,11.5,-999.9,56,-99.99,,,-99.99,,2013-11-20 09:08:00,
2013-11-20 04:14:00,33.8,19.4,30.35,NNE,30,11.5,-999.9,56,-99.99,,,-99.99,,2013-11-20 09:14:00,
2013-11-20 04:20:00,33.8,19.4,30.35,NNE,30,11.5,-999.9,56,-99.99,,,-99.99,,2013-11-20 09:20:00,
2013-11-20 04:26:00,33.8,21.2,30.36,NNE,20,9.2,-999.9,60,-99.99,,,-99.99,,2013-11-20 09:26:00,
2013-11-20 04:32:00,33.8,21.2,30.36,NE,40,10.4,-999.9,60,-99.99,,,-99.99,,2013-11-20 09:32:00,
2013-11-20 04:38:00,33.8,21.2,30.36,NE,40,10.4,-999.9,60,-99.99,,,-99.99,,2013-11-20 09:38:00,
2013-11-20 04:44:00,33.8,21.2,30.37,NE,35,9.2,-999.9,60,-99.99,,,-99.99,,2013-11-20 09:44:00,
2013-11-20 04:50:00,33.8,21.2,30.37,NE,35,9.2,-999.9,60,-99.99,,,-99.99,,2013-11-20 09:50:00,
2013-11-20 04:56:00,33.8,21.2,30.37,NNE,32,9.2,-999.9,60,-99.99,,,-99.99,,2013-11-20 09:56:00,
2013-11-20 05:02:00,33.8,19.4,30.38,NNE,20,11.5,-999.9,56,-99.99,,,-99.99,,2013-11-20 10:02:00,
2013-11-20 05:08:00,33.8,19.4,30.38,NNE,20,11.5,-999.9,56,-99.99,,,-99.99,,2013-11-20 10:08:00,
2013-11-20 05:14:00,33.8,19.4,30.38,North,5,8.1,-999.9,56,-99.99,,,-99.99,,2013-11-20 10:14:00,
2013-11-20 05:20:00,33.8,19.4,30.38,North,5,8.1,-999.9,56,-99.99,,,-99.99,,2013-11-20 10:20:00,
2013-11-20 05:26:00,33.8,19.4,30.39,NNE,25,10.4,-999.9,56,-99.99,,,-99.99,,2013-11-20 10:26:00,
2013-11-20 05:32:00,33.8,19.4,30.39,NNE,12,10.4,-999.9,56,-99.99,,,-99.99,,2013-11-20 10:32:00,
2013-11-20 05:38:00,33.8,19.4,30.39,NNE,12,10.4,-999.9,56,-99.99,,,-99.99,,2013-11-20 10:38:00,
2013-11-20 05:44:00,33.8,17.6,30.40,NNE,15,15.0,-999.9,52,-99.99,,,-99.99,,2013-11-20 10:44:00,
2013-11-20 05:50:00,33.8,17.6,30.40,NNE,15,15.0,-999.9,52,-99.99,,,-99.99,,2013-11-20 10:50:00,
2013-11-20 05:56:00,33.8,17.6,30.40,NNE,18,10.4,-999.9,52,-99.99,,,-99.99,,2013-11-20 10:56:00,
2013-11-20 06:02:00,33.8,17.6,30.41,NNE,14,9.2,-999.9,52,-99.99,,,-99.99,,2013-11-20 11:02:00,
2013-11-20 06:08:00,33.8,17.6,30.41,NNE,14,9.2,-999.9,52,-99.99,,,-99.99,,2013-11-20 11:08:00,
2013-11-20 06:14:00,33.8,17.6,30.42,NE,47,10.4,-999.9,52,-99.99,,,-99.99,,2013-11-20 11:14:00,
2013-11-20 06:20:00,33.8,17.6,30.42,NE,47,10.4,-999.9,52,-99.99,,,-99.99,,2013-11-20 11:20:00,
2013-11-20 06:26:00,33.8,17.6,30.42,NE,35,8.1,-999.9,52,-99.99,,,-99.99,,2013-11-20 11:26:00,
2013-11-20 06:32:00,33.8,17.6,30.43,NNE,27,6.9,-999.9,52,-99.99,,,-99.99,,2013-11-20 11:32:00,
2013-11-20 06:38:00,33.8,17.6,30.43,NNE,27,6.9,-999.9,52,-99.99,,,-99.99,,2013-11-20 11:38:00,
2013-11-20 06:44:00,33.8,17.6,30.43,North,9,9.2,-999.9,52,-99.99,,,-99.99,,2013-11-20 11:44:00,
2013-11-20 06:50:00,33.8,17.6,30.43,North,9,9.2,-999.9,52,-99.99,,,-99.99,,2013-11-20 11:50:00,
2013-11-20 06:56:00,32.0,15.8,30.43,NNE,18,10.4,-999.9,51,-99.99,,,-99.99,,2013-11-20 11:56:00,
2013-11-20 07:02:00,32.0,15.8,30.44,NNE,18,13.8,-999.9,51,-99.99,,,-99.99,,2013-11-20 12:02:00,
2013-11-20 07:08:00,32.0,15.8,30.44,NNE,18,13.8,-999.9,51,-99.99,,,-99.99,,2013-11-20 12:08:00,
2013-11-20 07:14:00,32.0,15.8,30.44,NNE,28,15.0,-999.9,51,-99.99,,,-99.99,,2013-11-20 12:14:00,
2013-11-20 07:20:00,32.0,15.8,30.44,NNE,28,15.0,-999.9,51,-99.99,,,-99.99,,2013-11-20 12:20:00,
2013-11-20 07:26:00,32.0,15.8,30.44,NNE,28,18.4,-999.9,51,-99.99,,,-99.99,,2013-11-20 12:26:00,
2013-11-20 07:32:00,32.0,15.8,30.45,NNE,22,20.7,-999.9,51,-99.99,,,-99.99,,2013-11-20 12:32:00,
2013-11-20 07:38:00,32.0,15.8,30.45,NNE,22,20.7,-999.9,51,-99.99,,,-99.99,,2013-11-20 12:38:00,
2013-11-20 07:44:00,32.0,15.8,30.45,NNE,19,16.1,-999.9,51,-99.99,,,-99.99,,2013-11-20 12:44:00,
2013-11-20 07:50:00,32.0,15.8,30.45,NNE,19,16.1,-999.9,51,-99.99,,,-99.99,,2013-11-20 12:50:00,
2013-11-20 07:56:00,33.8,15.8,30.45,NNE,17,12.7,-999.9,48,-99.99,,,-99.99,,2013-11-20 12:56:00,
2013-11-20 08:02:00,33.8,15.8,30.45,NNE,18,18.4,-999.9,48,-99.99,,,-99.99,,2013-11-20 13:02:00,
2013-11-20 08:08:00,33.8,15.8,30.45,NNE,18,18.4,-999.9,48,-99.99,,,-99.99,,2013-11-20 13:08:00,
2013-11-20 08:14:00,33.8,15.8,30.45,NNE,19,12.7,-999.9,48,-99.99,,,-99.99,,2013-11-20 13:14:00,
2013-11-20 08:20:00,33.8,15.8,30.45,NNE,19,12.7,-999.9,48,-99.99,,,-99.99,,2013-11-20 13:20:00,
2013-11-20 08:26:00,33.8,15.8,30.46,North,10,18.4,-999.9,48,-99.99,,,-99.99,,2013-11-20 13:26:00,
2013-11-20 08:32:00,33.8,14.0,30.46,NNE,19,16.1,-999.9,44,-99.99,,,-99.99,,2013-11-20 13:32:00,
2013-11-20 08:38:00,33.8,14.0,30.46,NNE,19,16.1,-999.9,44,-99.99,,,-99.99,,2013-11-20 13:38:00,
2013-11-20 08:44:00,33.8,14.0,30.46,NNE,19,19.6,-999.9,44,-99.99,,,-99.99,,2013-11-20 13:44:00,
2013-11-20 08:50:00,33.8,14.0,30.46,NNE,19,19.6,-999.9,44,-99.99,,,-99.99,,2013-11-20 13:50:00,
2013-11-20 08:56:00,33.8,14.0,30.47,NNE,32,13.8,-999.9,44,-99.99,,,-99.99,,2013-11-20 13:56:00,
2013-11-20 09:02:00,35.6,14.0,30.47,NNE,23,15.0,-999.9,41,-99.99,,,-99.99,,2013-11-20 14:02:00,
2013-11-20 09:08:00,35.6,14.0,30.47,NNE,23,15.0,-999.9,41,-99.99,,,-99.99,,2013-11-20 14:08:00,
2013-11-20 09:14:00,35.6,14.0,30.47,NNE,19,18.4,-999.9,41,-99.99,,,-99.99,,2013-11-20 14:14:00,
2013-11-20 09:20:00,35.6,14.0,30.47,NNE,19,18.4,-999.9,41,-99.99,,,-99.99,,2013-11-20 14:20:00,
2013-11-20 09:26:00,35.6,12.2,30.47,NNE,30,13.8,-999.9,38,-99.99,,,-99.99,,2013-11-20 14:26:00,
2013-11-20 09:42:00,35.6,12.2,30.47,NNE,24,10.4,-999.9,38,-99.99,,,-99.99,,2013-11-20 14:42:00,
2013-11-20 09:48:00,35.6,12.2,30.47,NNE,24,10.4,-999.9,38,-99.99,,,-99.99,,2013-11-20 14:48:00,
2013-11-20 09:54:00,35.6,12.2,30.47,NNE,15,13.8,-999.9,38,-99.99,,,-99.99,,2013-11-20 14:54:00,
2013-11-20 10:00:00,35.6,12.2,30.47,NNE,15,13.8,-999.9,38,-99.99,,,-99.99,,2013-11-20 15:00:00,
2013-11-20 10:06:00,37.4,12.2,30.48,NNE,25,11.5,-999.9,36,-99.99,,,-99.99,,2013-11-20 15:06:00,
2013-11-20 10:12:00,37.4,12.2,30.47,North,358,11.5,-999.9,36,-99.99,,,-99.99,,2013-11-20 15:12:00,
2013-11-20 10:18:00,37.4,12.2,30.47,North,358,11.5,-999.9,36,-99.99,,,-99.99,,2013-11-20 15:18:00,
2013-11-20 10:24:00,37.4,12.2,30.47,NNE,30,10.4,-999.9,36,-99.99,,,-99.99,,2013-11-20 15:24:00,
2013-11-20 10:30:00,37.4,12.2,30.47,NNE,30,10.4,-999.9,36,-99.99,,,-99.99,,2013-11-20 15:30:00,
2013-11-20 10:36:00,37.4,10.4,30.47,NNE,20,15.0,-999.9,33,-99.99,,,-99.99,,2013-11-20 15:36:00,
2013-11-20 10:42:00,39.2,12.2,30.47,NE,42,13.8,-999.9,33,-99.99,,,-99.99,,2013-11-20 15:42:00,
2013-11-20 10:48:00,39.2,12.2,30.47,NE,42,13.8,-999.9,33,-99.99,,,-99.99,,2013-11-20 15:48:00,
2013-11-20 10:54:00,39.2,12.2,30.47,NNE,32,12.7,-999.9,33,-99.99,,,-99.99,,2013-11-20 15:54:00,
2013-11-20 11:00:00,39.2,12.2,30.47,NNE,32,12.7,-999.9,33,-99.99,,,-99.99,,2013-11-20 16:00:00,
2013-11-20 11:06:00,39.2,10.4,30.47,NNE,25,10.4,-999.9,31,-99.99,,,-99.99,,2013-11-20 16:06:00,
2013-11-20 11:12:00,39.2,10.4,30.46,NNE,20,18.4,-999.9,31,-99.99,,,-99.99,,2013-11-20 16:12:00,
2013-11-20 11:18:00,39.2,10.4,30.46,NNE,20,18.4,-999.9,31,-99.99,,,-99.99,,2013-11-20 16:18:00,
2013-11-20 11:24:00,39.2,10.4,30.46,NNE,16,12.7,-999.9,31,-99.99,,,-99.99,,2013-11-20 16:24:00,
2013-11-20 11:30:00,39.2,10.4,30.46,NNE,16,12.7,-999.9,31,-99.99,,,-99.99,,2013-11-20 16:30:00,
2013-11-20 11:36:00,41.0,10.4,30.45,NE,45,16.1,-999.9,29,-99.99,,,-99.99,,2013-11-20 16:36:00,
2013-11-20 11:42:00,41.0,10.4,30.45,North,358,11.5,-999.9,29,-99.99,,,-99.99,,2013-11-20 16:42:00,
2013-11-20 11:48:00,41.0,10.4,30.45,North,358,11.5,-999.9,29,-99.99,,,-99.99,,2013-11-20 16:48:00,
2013-11-20 11:54:00,41.0,10.4,30.45,NNE,19,15.0,-999.9,29,-99.99,,,-99.99,,2013-11-20 16:54:00,
2013-11-20 12:00:00,41.0,10.4,30.45,NNE,19,15.0,-999.9,29,-99.99,,,-99.99,,2013-11-20 17:00:00,
2013-11-20 12:06:00,41.0,10.4,30.45,NNE,27,4.6,-999.9,29,-99.99,,,-99.99,,2013-11-20 17:06:00,
2013-11-20 12:12:00,42.8,10.4,30.45,NNE,16,12.7,-999.9,27,-99.99,,,-99.99,,2013-11-20 17:12:00,
2013-11-20 12:18:00,42.8,10.4,30.45,NNE,16,12.7,-999.9,27,-99.99,,,-99.99,,2013-11-20 17:18:00,
2013-11-20 12:24:00,42.8,10.4,30.44,ENE,60,6.9,-999.9,27,-99.99,,,-99.99,,2013-11-20 17:24:00,
2013-11-20 12:30:00,42.8,10.4,30.44,ENE,60,6.9,-999.9,27,-99.99,,,-99.99,,2013-11-20 17:30:00,
2013-11-20 12:36:00,42.8,8.6,30.44,NE,46,6.9,-999.9,25,-99.99,,,-99.99,,2013-11-20 17:36:00,
2013-11-20 12:42:00,42.8,8.6,30.44,NE,40,5.8,-999.9,25,-99.99,,,-99.99,,2013-11-20 17:42:00,
2013-11-20 12:48:00,42.8,8.6,30.44,NE,40,5.8,-999.9,25,-99.99,,,-99.99,,2013-11-20 17:48:00,
2013-11-20 12:54:00,44.6,10.4,30.44,North,354,8.1,-999.9,25,-99.99,,,-99.99,,2013-11-20 17:54:00,
2013-11-20 13:00:00,44.6,10.4,30.44,North,354,8.1,-999.9,25,-99.99,,,-99.99,,2013-11-20 18:00:00,
2013-11-20 13:06:00,44.6,10.4,30.44,ENE,58,9.2,-999.9,25,-99.99,,,-99.99,,2013-11-20 18:06:00,
2013-11-20 13:12:00,44.6,12.2,30.44,ENE,60,3.5,-999.9,27,-99.99,,,-99.99,,2013-11-20 18:12:00,
2013-11-20 13:18:00,44.6,12.2,30.44,ENE,60,3.5,-999.9,27,-99.99,,,-99.99,,2013-11-20 18:18:00,
2013-11-20 13:24:00,44.6,12.2,30.44,SE,134,3.5,-999.9,27,-99.99,,,-99.99,,2013-11-20 18:24:00,
2013-11-20 13:30:00,44.6,12.2,30.44,SE,134,3.5,-999.9,27,-99.99,,,-99.99,,2013-11-20 18:30:00,
2013-11-20 13:36:00,44.6,12.2,30.43,SE,132,2.3,-999.9,27,-99.99,,,-99.99,,2013-11-20 18:36:00,
2013-11-20 13:42:00,44.6,12.2,30.43,East,85,1.2,-999.9,27,-99.99,,,-99.99,,2013-11-20 18:42:00,
2013-11-20 13:48:00,44.6,12.2,30.43,East,85,1.2,-999.9,27,-99.99,,,-99.99,,2013-11-20 18:48:00,
2013-11-20 13:54:00,44.6,12.2,30.44,SSE,155,0.0,-999.9,27,-99.99,,,-99.99,,2013-11-20 18:54:00,
2013-11-20 14:00:00,44.6,12.2,30.44,SSE,155,0.0,-999.9,27,-99.99,,,-99.99,,2013-11-20 19:00:00,
2013-11-20 14:06:00,44.6,12.2,30.43,NNE,16,4.6,-999.9,27,-99.99,,,-99.99,,2013-11-20 19:06:00,
2013-11-20 14:12:00,46.4,14.0,30.44,North,0,0.0,-999.9,27,-99.99,,,-99.99,,2013-11-20 19:12:00,
2013-11-20 14:18:00,46.4,14.0,30.44,North,0,0.0,-999.9,27,-99.99,,,-99.99,,2013-11-20 19:18:00,
2013-11-20 14:24:00,44.6,12.2,30.44,East,85,3.5,-999.9,27,-99.99,,,-99.99,,2013-11-20 19:24:00,
2013-11-20 14:30:00,44.6,12.2,30.44,East,85,3.5,-999.9,27,-99.99,,,-99.99,,2013-11-20 19:30:00,
2013-11-20 14:36:00,46.4,14.0,30.44,East,97,5.8,-999.9,27,-99.99,,,-99.99,,2013-11-20 19:36:00,
2013-11-20 14:42:00,46.4,14.0,30.45,East,95,2.3,-999.9,27,-99.99,,,-99.99,,2013-11-20 19:42:00,
2013-11-20 14:48:00,46.4,14.0,30.45,East,95,2.3,-999.9,27,-99.99,,,-99.99,,2013-11-20 19:48:00,
2013-11-20 14:54:00,46.4,14.0,30.45,East,86,1.2,-999.9,27,-99.99,,,-99.99,,2013-11-20 19:54:00,
2013-11-20 15:00:00,46.4,14.0,30.45,East,86,1.2,-999.9,27,-99.99,,,-99.99,,2013-11-20 20:00:00,
2013-11-20 15:06:00,46.4,14.0,30.45,NE,56,5.8,-999.9,27,-99.99,,,-99.99,,2013-11-20 20:06:00,
2013-11-20 15:12:00,46.4,14.0,30.45,East,91,4.6,-999.9,27,-99.99,,,-99.99,,2013-11-20 20:12:00,
2013-11-20 15:18:00,46.4,14.0,30.45,East,91,4.6,-999.9,27,-99.99,,,-99.99,,2013-11-20 20:18:00,
2013-11-20 15:24:00,46.4,14.0,30.45,East,92,2.3,-999.9,27,-99.99,,,-99.99,,2013-11-20 20:24:00,
2013-11-20 15:30:00,46.4,14.0,30.45,East,92,2.3,-999.9,27,-99.99,,,-99.99,,2013-11-20 20:30:00,
2013-11-20 15:36:00,46.4,14.0,30.45,ENE,60,0.0,-999.9,27,-99.99,,,-99.99,,2013-11-20 20:36:00,
2013-11-20 15:42:00,44.6,12.2,30.46,ESE,108,0.0,-999.9,27,-99.99,,,-99.99,,2013-11-20 20:42:00,
2013-11-20 15:48:00,44.6,12.2,30.46,ESE,108,0.0,-999.9,27,-99.99,,,-99.99,,2013-11-20 20:48:00,
2013-11-20 15:54:00,44.6,12.2,30.46,ENE,75,0.0,-999.9,27,-99.99,,,-99.99,,2013-11-20 20:54:00,
2013-11-20 16:00:00,44.6,12.2,30.46,ENE,75,0.0,-999.9,27,-99.99,,,-99.99,,2013-11-20 21:00:00,
2013-11-20 16:06:00,44.6,14.0,30.46,North,0,0.0,-999.9,29,-99.99,,,-99.99,,2013-11-20 21:06:00,
2013-11-20 16:12:00,44.6,14.0,30.46,North,0,0.0,-999.9,29,-99.99,,,-99.99,,2013-11-20 21:12:00,
2013-11-20 16:18:00,44.6,14.0,30.46,North,0,0.0,-999.9,29,-99.99,,,-99.99,,2013-11-20 21:18:00,
2013-11-20 16:24:00,42.8,14.0,30.46,ENE,76,0.0,-999.9,31,-99.99,,,-99.99,,2013-11-20 21:24:00,
2013-11-20 16:30:00,42.8,14.0,30.46,ENE,76,0.0,-999.9,31,-99.99,,,-99.99,,2013-11-20 21:30:00,
2013-11-20 16:36:00,42.8,14.0,30.46,NE,56,0.0,-999.9,31,-99.99,,,-99.99,,2013-11-20 21:36:00,
2013-11-20 16:42:00,42.8,14.0,30.47,NE,51,4.6,-999.9,31,-99.99,,,-99.99,,2013-11-20 21:42:00,
2013-11-20 16:48:00,42.8,14.0,30.47,NE,51,4.6,-999.9,31,-99.99,,,-99.99,,2013-11-20 21:48:00,
2013-11-20 16:54:00,42.8,15.8,30.47,NE,48,4.6,-999.9,34,-99.99,,,-99.99,,2013-11-20 21:54:00,
2013-11-20 17:00:00,42.8,15.8,30.47,NE,48,4.6,-999.9,34,-99.99,,,-99.99,,2013-11-20 22:00:00,
2013-11-20 17:12:00,42.8,15.8,30.48,NE,46,5.8,-999.9,34,-99.99,,,-99.99,,2013-11-20 22:12:00,
2013-11-20 17:18:00,42.8,15.8,30.48,NE,46,5.8,-999.9,34,-99.99,,,-99.99,,2013-11-20 22:18:00,
2013-11-20 17:24:00,42.8,15.8,30.48,NE,47,5.8,-999.9,34,-99.99,,,-99.99,,2013-11-20 22:24:00,
2013-11-20 17:30:00,42.8,15.8,30.48,NE,47,5.8,-999.9,34,-99.99,,,-99.99,,2013-11-20 22:30:00,
2013-11-20 17:36:00,42.8,14.0,30.48,NE,46,6.9,-999.9,31,-99.99,,,-99.99,,2013-11-20 22:36:00,
2013-11-20 17:42:00,41.0,12.2,30.48,NE,41,4.6,-999.9,31,-99.99,,,-99.99,,2013-11-20 22:42:00,
2013-11-20 17:48:00,41.0,12.2,30.48,NE,41,4.6,-999.9,31,-99.99,,,-99.99,,2013-11-20 22:48:00,
2013-11-20 17:54:00,41.0,12.2,30.49,NE,40,5.8,-999.9,31,-99.99,,,-99.99,,2013-11-20 22:54:00,
2013-11-20 18:00:00,41.0,12.2,30.49,NE,40,5.8,-999.9,31,-99.99,,,-99.99,,2013-11-20 23:00:00,
2013-11-20 18:06:00,41.0,12.2,30.49,North,9,5.8,-999.9,31,-99.99,,,-99.99,,2013-11-20 23:06:00,
2013-11-20 18:12:00,41.0,14.0,30.49,NNE,24,6.9,-999.9,33,-99.99,,,-99.99,,2013-11-20 23:12:00,
2013-11-20 18:18:00,41.0,14.0,30.49,NNE,24,6.9,-999.9,33,-99.99,,,-99.99,,2013-11-20 23:18:00,
2013-11-20 18:24:00,41.0,14.0,30.50,North,358,4.6,-999.9,33,-99.99,,,-99.99,,2013-11-20 23:24:00,
2013-11-20 18:30:00,41.0,14.0,30.50,North,358,4.6,-999.9,33,-99.99,,,-99.99,,2013-11-20 23:30:00,
2013-11-20 18:36:00,41.0,14.0,30.49,NNE,33,4.6,-999.9,33,-99.99,,,-99.99,,2013-11-20 23:36:00,
2013-11-20 19:32:00,39.2,14.0,30.51,NE,43,8.1,-999.9,36,-99.99,,,-99.99,,2013-11-21 00:32:00,
2013-11-20 19:38:00,39.2,14.0,30.51,NE,43,8.1,-999.9,36,-99.99,,,-99.99,,2013-11-21 00:38:00,
2013-11-20 19:44:00,39.2,14.0,30.51,NE,36,9.2,-999.9,36,-99.99,,,-99.99,,2013-11-21 00:44:00,
2013-11-20 19:50:00,39.2,14.0,30.51,NE,36,9.2,-999.9,36,-99.99,,,-99.99,,2013-11-21 00:50:00,
2013-11-20 19:56:00,39.2,14.0,30.51,NE,45,6.9,-999.9,36,-99.99,,,-99.99,,2013-11-21 00:56:00,
2013-11-20 20:02:00,39.2,15.8,30.51,NE,40,8.1,-999.9,39,-99.99,,,-99.99,,2013-11-21 01:02:00,
2013-11-20 20:08:00,39.2,15.8,30.51,NE,40,8.1,-999.9,39,-99.99,,,-99.99,,2013-11-21 01:08:00,
2013-11-20 20:14:00,37.4,14.0,30.51,NE,51,1.2,-999.9,38,-99.99,,,-99.99,,2013-11-21 01:14:00,
2013-11-20 20:20:00,37.4,14.0,30.51,NE,51,1.2,-999.9,38,-99.99,,,-99.99,,2013-11-21 01:20:00,
2013-11-20 20:26:00,37.4,14.0,30.52,NE,50,4.6,-999.9,38,-99.99,,,-99.99,,2013-11-21 01:26:00,
2013-11-20 20:32:00,37.4,15.8,30.52,NE,47,9.2,-999.9,41,-99.99,,,-99.99,,2013-11-21 01:32:00,
2013-11-20 20:38:00,37.4,15.8,30.52,NE,47,9.2,-999.9,41,-99.99,,,-99.99,,2013-11-21 01:38:00,
2013-11-20 20:44:00,37.4,15.8,30.52,NE,47,8.1,-999.9,41,-99.99,,,-99.99,,2013-11-21 01:44:00,
2013-11-20 20:50:00,37.4,15.8,30.52,NE,47,8.1,-999.9,41,-99.99,,,-99.99,,2013-11-21 01:50:00,
2013-11-20 20:56:00,37.4,15.8,30.52,NE,43,10.4,-999.9,41,-99.99,,,-99.99,,2013-11-21 01:56:00,
2013-11-20 21:02:00,37.4,15.8,30.52,NE,34,6.9,-999.9,41,-99.99,,,-99.99,,2013-11-21 02:02:00,
2013-11-20 21:08:00,37.4,15.8,30.52,NE,34,6.9,-999.9,41,-99.99,,,-99.99,,2013-11-21 02:08:00,
2013-11-20 21:14:00,37.4,17.6,30.52,NNE,21,12.7,-999.9,45,-99.99,,,-99.99,,2013-11-21 02:14:00,
2013-11-20 21:20:00,37.4,17.6,30.52,NNE,21,12.7,-999.9,45,-99.99,,,-99.99,,2013-11-21 02:20:00,
2013-11-20 21:26:00,37.4,17.6,30.53,NNE,22,6.9,-999.9,45,-99.99,,,-99.99,,2013-11-21 02:26:00,
2013-11-20 21:32:00,37.4,17.6,30.53,NNE,32,5.8,-999.9,45,-99.99,,,-99.99,,2013-11-21 02:32:00,
2013-11-20 21:38:00,37.4,17.6,30.53,NNE,32,5.8,-999.9,45,-99.99,,,-99.99,,2013-11-21 02:38:00,
2013-11-20 21:44:00,37.4,17.6,30.52,NE,39,9.2,-999.9,45,-99.99,,,-99.99,,2013-11-21 02:44:00,
2013-11-20 21:50:00,37.4,17.6,30.52,NE,39,9.2,-999.9,45,-99.99,,,-99.99,,2013-11-21 02:50:00,
2013-11-20 21:56:00,37.4,17.6,30.53,NE,46,9.2,-999.9,45,-99.99,,,-99.99,,2013-11-21 02:56:00,
2013-11-20 22:02:00,37.4,17.6,30.53,NE,46,9.2,-999.9,45,-99.99,,,-99.99,,2013-11-21 03:02:00,
2013-11-20 22:08:00,37.4,17.6,30.53,NE,46,9.2,-999.9,45,-99.99,,,-99.99,,2013-11-21 03:08:00,
2013-11-20 22:14:00,37.4,17.6,30.53,North,353,6.9,-999.9,45,-99.99,,,-99.99,,2013-11-21 03:14:00,
2013-11-20 22:20:00,37.4,17.6,30.53,North,353,6.9,-999.9,45,-99.99,,,-99.99,,2013-11-21 03:20:00,
2013-11-20 22:26:00,37.4,17.6,30.53,North,357,5.8,-999.9,45,-99.99,,,-99.99,,2013-11-21 03:26:00,
2013-11-20 22:32:00,37.4,17.6,30.53,North,355,5.8,-999.9,45,-99.99,,,-99.99,,2013-11-21 03:32:00,
2013-11-20 22:38:00,37.4,17.6,30.53,North,355,5.8,-999.9,45,-99.99,,,-99.99,,2013-11-21 03:38:00,
2013-11-20 22:44:00,37.4,15.8,30.53,North,10,4.6,-999.9,41,-99.99,,,-99.99,,2013-11-21 03:44:00,
2013-11-20 22:50:00,37.4,15.8,30.53,North,10,4.6,-999.9,41,-99.99,,,-99.99,,2013-11-21 03:50:00,
2013-11-20 22:56:00,37.4,15.8,30.54,North,10,4.6,-999.9,41,-99.99,,,-99.99,,2013-11-21 03:56:00,
2013-11-20 23:02:00,37.4,15.8,30.54,North,3,2.3,-999.9,41,-99.99,,,-99.99,,2013-11-21 04:02:00,
2013-11-20 23:08:00,37.4,15.8,30.54,North,3,2.3,-999.9,41,-99.99,,,-99.99,,2013-11-21 04:08:00,
2013-11-20 23:14:00,37.4,17.6,30.54,NNE,19,0.0,-999.9,45,-99.99,,,-99.99,,2013-11-21 04:14:00,
2013-11-20 23:20:00,37.4,17.6,30.54,NNE,19,0.0,-999.9,45,-99.99,,,-99.99,,2013-11-21 04:20:00,
2013-11-20 23:26:00,37.4,15.8,30.54,NE,40,8.1,-999.9,41,-99.99,,,-99.99,,2013-11-21 04:26:00,
2013-11-20 23:32:00,37.4,17.6,30.54,NE,49,4.6,-999.9,45,-99.99,,,-99.99,,2013-11-21 04:32:00,
2013-11-20 23:38:00,37.4,17.6,30.54,NE,49,4.6,-999.9,45,-99.99,,,-99.99,,2013-11-21 04:38:00,
2013-11-20 23:44:00,37.4,17.6,30.54,NE,49,8.1,-999.9,45,-99.99,,,-99.99,,2013-11-21 04:44:00,
2013-11-20 23:50:00,37.4,17.6,30.54,NE,49,8.1,-999.9,45,-99.99,,,-99.99,,2013-11-21 04:50:00,
2013-11-20 23:56:00,35.6,17.6,30.53,NE,56,5.8,-999.9,48,-99.99,,,-99.99,,2013-11-21 04:56:00,